Flag Weather past 2 weeks in Altdorf, Uri, Switzerland

Now
47 °F

Cool.


Feels Like: 47 °F
Forecast: 40 / 51 °F
Wind: 1 mph from West

Location: Altdorf

Current Time: Nov 27, 2014 at 6:26:51 PM

Latest Report: Nov 27, 2014 at 5:00 PM


Visibility: N/A

Pressure: 29.78 "Hg

Humidity: 89%

Dew point: 44 °F

Location of AltdorfLocation

Historic Weather in Altdorf — Graph

°F

Altdorf temperature yesterday

Maximum temperature yesterday: 51 °F (at 1:00 PM)
Minimum temperature yesterday: 44 °F (at 7:00 PM)
Average temperature yesterday: 47 °F

Past Weeks' High & Low Weather Summary

 TemperatureHumidityPressure
High65 °F (Nov 14, 11:00 PM)100% (Nov 13, 8:00 AM)30.33 "Hg (Nov 13, 8:00 AM)
Low30 °F (Nov 20, 2:00 AM)35% (Nov 14, 11:00 PM)29.55 "Hg (Nov 15, 2:00 AM)
Average46 °F88%29.98 "Hg
* Reported Nov 12 5:00 PM — Nov 27 5:00 PM, Altdorf, Weather by CustomWeather, © 2014

Note: Actual official high and low records may vary slightly from our data, if they occured in-between our weather recording intervals... More about our weather records

Advertising

Altdorf weather history for previous 24 hours

 ConditionsComfort  
Time TempWeatherWind HumidityBarometerVisibility
5:00 PM
Nov 27
47 °FCool.1 mph89%29.78 "HgN/A
4:00 PM47 °FOvercast.1 mph90%29.78 "Hg9 mi
3:00 PM48 °FCool.6 mph87%29.78 "HgN/A
2:00 PM48 °FCool.5 mph86%29.78 "HgN/A
1:00 PM48 °FLow clouds.6 mph87%29.78 "Hg11 mi
12:00 PM48 °FCool.7 mph87%29.80 "HgN/A
11:00 AM48 °FCool.9 mph87%29.80 "HgN/A
10:00 AM48 °FCool.7 mph87%29.80 "HgN/A
9:00 AM47 °FCool.No wind87%29.80 "HgN/A
8:00 AM45 °FCool.1 mph93%29.80 "HgN/A
7:00 AM46 °FOvercast.1 mph91%29.81 "Hg9 mi
6:00 AM47 °FCool.2 mph88%29.82 "HgN/A
5:00 AM47 °FCool.1 mph90%29.83 "HgN/A
4:00 AM46 °FOvercast.No wind92%29.85 "Hg9 mi
3:00 AM47 °FCool.No wind90%29.86 "HgN/A
2:00 AM47 °FCool.2 mph92%29.87 "HgN/A
1:00 AM47 °FOvercast.2 mph91%29.89 "Hg9 mi
12:00 AM47 °FCool.No wind90%29.90 "HgN/A
11:00 PM
Nov 26
47 °FCool.2 mph93%29.92 "HgN/A
10:00 PM47 °FOvercast.1 mph95%29.93 "Hg9 mi
9:00 PM47 °FCool.1 mph93%29.93 "HgN/A
8:00 PM46 °FCool.1 mph95%29.93 "HgN/A
7:00 PM44 °FPassing clouds.2 mph97%29.94 "Hg11 mi
6:00 PM46 °FCool.No wind97%29.94 "HgN/A
Weather by CustomWeather, © 2014

See weather overviewHow to use our weather pages